Regional Weather Roundup
Issued by NWS

Home | Current Version | Previous Version | Text Only | Print | Product List | Glossary On
Versions: 1 2 3 4 5 6 7 8 9 10 11 12 13 14 15 16 17 18 19 20 21 22 23 24 25 26 27 28 29 30 31 32 33 34 35 36 37 38 39 40 41 42 43 44 45 46 47 48 49 50
000
ASUS45 KBOI 231210
RWRID
WEATHER ROUNDUP FOR IDAHO
NATIONAL WEATHER SERVICE BOISE ID
600 AM MDT WED JUL 23 2014

NOTE: "FAIR" INDICATES FEW OR NO CLOUDS BELOW 12000 FEET
WITH NO SIGNIFICANT WEATHER AND/OR OBSTRUCTIONS TO VISIBILITY

IDZ012-014-231300-
SOUTHWEST IDAHO


CITY           SKY/WX    TMP DP  RH WIND       PRES   REMARKS
BOISE          PTCLDY    64  57  78 NE3       30.06R
CALDWELL       PTCLDY    63  52  67 SW7       30.05F
MOUNTAIN HOME  CLEAR     64  55  71 W10       30.05R
$$

IDZ016-017-231300-
SOUTHCENTRAL IDAHO


CITY           SKY/WX    TMP DP  RH WIND       PRES   REMARKS
BURLEY         CLEAR     67  45  45 W16       30.11R
JEROME         PTCLDY    62  50  64 S9        30.10R
TWIN FALLS     PTCLDY    66  46  48 S13       30.11R
$$

IDZ019>023-231300-
SOUTHEAST IDAHO


CITY           SKY/WX    TMP DP  RH WIND       PRES   REMARKS
IDAHO FALLS    CLEAR     55  48  77 CALM      30.14R
POCATELLO      CLEAR     65  47  52 SW10      30.15R
REXBURG        PTCLDY    58  46  64 E7        30.14R
$$

IDZ006-010-011-018-031-032-231300-
CENTRAL IDAHO MOUNTAINS


CITY           SKY/WX    TMP DP  RH WIND       PRES   REMARKS
MCCALL         PTCLDY    55  52  89 CALM      30.16F
HAILEY         CLEAR     61  41  48 CALM      30.18R
STANLEY          N/A     47  46  97 CALM      30.32F
SALMON         CLOUDY    57  54  88 CALM      30.23R
CHALLIS        PTCLDY    57  48  72 NW6       30.24R
$$

IDZ002-004-006-007-026-231300-
NORTHERN IDAHO


CITY           SKY/WX    TMP DP  RH WIND       PRES   REMARKS
LEWISTON       LGT RAIN  65  60  84 NE10      29.98F
LOWELL           N/A     66  59  78 CALM      30.06F
COEUR D`ALENE  CLOUDY    59  55  88 E8        30.07F
MULLAN PASS    LGT RAIN  50  47  89 CALM      30.28R
$$



USA.gov is the U.S. government's official web portal to all federal, state and local government web resources and services.